Bellaire, MI

12:38 PM EDT on May 26, 2017 (GMT -0400)
Antrim County

Weather History for KACB - April, 2013

Change the Weather History Date:

Saturday, April 27, 2013

  Actual Average (KCVX) Record (KCVX)
Temperature  
Mean Temperature 58 °F -  
Max Temperature 71 °F 55 °F 71 °F (2003)
Min Temperature 45 °F 38 °F 28 °F (2004)
Degree Days  
Heating Degree Days 7    
Growing Degree Days 8 (Base 50)    
Moisture  
Dew Point 44 °F    
Average Humidity 62    
Maximum Humidity 95    
Minimum Humidity 29    
Precipitation  
Precipitation 0.00 in - - ()
Sea Level Pressure  
Sea Level Pressure 30.16 in    
Wind  
Wind Speed 5 mph (SW)    
Max Wind Speed 13 mph    
Max Gust Speed 20 mph    
Visibility 10 miles    
Events Rain    
Averages and records for this station are not official NWS values.
T = Trace of Precipitation, MM = Missing Value Source: NWS Daily Summary

Daily Weather History Graph

Daily Weather History Graph

Search for Another Location

Airport or City:

Trip Planner

Search our weather history database for the weather conditions in past years. The results will help you decide how hot, cold, wet, or windy it might be!

Date:

Astronomy

Apr. 27, 2013 Rise Set
Actual Time 6:35 AM EDT 8:41 PM EDT
Civil Twilight 6:03 AM EDT 9:13 PM EDT
Nautical Twilight 5:24 AM EDT 9:53 PM EDT
Astronomical Twilight 4:41 AM EDT 10:37 PM EDT
Moon 11:15 PM EDT (4/27) 7:49 AM EDT (4/27)
Length of Visible Light 15h 09m
Length of Day
14h 05m
Waning Gibbous, 95% of the Moon is Illuminated
Apr 27
Waning Gibbous
May 2
Last Quarter
May 9
New
May 18
First Quarter
May 25
Full

Hourly Weather History & Observations

Time (EDT) Temp. Dew Point Humidity Pressure Visibility Wind Dir Wind Speed Gust Speed Precip Events Conditions
12:14 AM 56.3 °F 39.9 °F 54% 30.18 in 10.0 mi South 5.8 mph - N/A   Mostly Cloudy
12:34 AM 56.1 °F 40.1 °F 55% 30.19 in 10.0 mi Calm Calm - N/A   Mostly Cloudy
12:54 AM 56.1 °F 41.9 °F 59% 30.20 in 10.0 mi South 3.5 mph - N/A Rain Light Rain
1:14 AM 54.5 °F 43.5 °F 66% 30.21 in 10.0 mi Calm Calm - N/A Rain Light Rain
1:34 AM 55.0 °F 43.0 °F 64% 30.21 in 10.0 mi Calm Calm - N/A Rain Light Rain
1:54 AM 55.0 °F 43.7 °F 66% 30.21 in 10.0 mi South 4.6 mph - N/A   Overcast
2:15 AM 54.7 °F 43.9 °F 67% 30.21 in 10.0 mi SSW 6.9 mph - N/A   Overcast
2:34 AM 54.7 °F 44.2 °F 68% 30.21 in 10.0 mi South 5.8 mph - N/A   Overcast
2:54 AM 54.7 °F 44.8 °F 69% 30.21 in 10.0 mi SSW 8.1 mph - N/A Rain Light Rain
3:15 AM 54.5 °F 45.3 °F 71% 30.20 in 10.0 mi SSW 4.6 mph - N/A Rain Light Rain
3:34 AM 54.5 °F 45.5 °F 72% 30.20 in 10.0 mi SSW 5.8 mph - N/A   Overcast
3:54 AM 54.1 °F 45.5 °F 73% 30.20 in 10.0 mi Calm Calm - N/A   Overcast
4:15 AM 53.6 °F 45.5 °F 74% 30.20 in 10.0 mi South 5.8 mph - N/A   Overcast
4:34 AM 53.6 °F 45.5 °F 74% 30.21 in 10.0 mi SSW 6.9 mph - N/A   Overcast
4:54 AM 53.1 °F 46.0 °F 77% 30.21 in 10.0 mi SW 5.8 mph - N/A Rain Light Rain
5:14 AM 51.3 °F 47.5 °F 87% 30.21 in 10.0 mi South 9.2 mph - N/A Rain Rain
5:34 AM 51.1 °F 47.5 °F 87% 30.20 in 10.0 mi SSW 4.6 mph - N/A   Overcast
5:54 AM 50.0 °F 47.8 °F 92% 30.20 in 10.0 mi SSW 6.9 mph - N/A   Mostly Cloudy
6:14 AM 48.6 °F 46.9 °F 94% 30.20 in 10.0 mi SSW 5.8 mph - N/A   Scattered Clouds
6:34 AM 47.8 °F 46.4 °F 95% 30.20 in 10.0 mi SSW 5.8 mph - N/A   Clear
6:55 AM 47.8 °F 45.7 °F 92% 30.20 in 10.0 mi SSW 4.6 mph - N/A   Clear
7:14 AM 47.5 °F 45.5 °F 93% 30.21 in 10.0 mi SSW 3.5 mph - N/A   Clear
7:34 AM 48.7 °F 46.2 °F 91% 30.21 in 10.0 mi SSW 4.6 mph - N/A   Clear
7:55 AM 50.5 °F 46.8 °F 87% 30.21 in 10.0 mi SSW 5.8 mph - N/A   Mostly Cloudy
8:14 AM 51.8 °F 46.4 °F 82% 30.22 in 10.0 mi SSW 6.9 mph - N/A   Overcast
8:34 AM 52.2 °F 46.6 °F 81% 30.22 in 10.0 mi North - - N/A   Overcast
8:55 AM 53.6 °F 46.9 °F 78% 30.22 in 10.0 mi South 6.9 mph - N/A   Mostly Cloudy
9:14 AM 55.6 °F 46.9 °F 73% 30.22 in 10.0 mi South 5.8 mph - N/A   Scattered Clouds
9:34 AM 55.9 °F 46.2 °F 70% 30.22 in 10.0 mi SSW 6.9 mph - N/A   Scattered Clouds
9:55 AM 56.8 °F 45.9 °F 67% 30.22 in 10.0 mi SSW 6.9 mph - N/A   Clear
10:14 AM 58.5 °F 46.8 °F 65% 30.22 in 10.0 mi South 5.8 mph - N/A   Clear
10:35 AM 59.5 °F 46.6 °F 62% 30.21 in 10.0 mi SSW 8.1 mph - N/A   Clear
10:54 AM 61.0 °F 46.9 °F 60% 30.21 in 10.0 mi SSW 9.2 mph 16.1 mph N/A   Clear
11:14 AM 61.9 °F 46.4 °F 57% 30.21 in 10.0 mi SSW 12.7 mph 19.6 mph N/A   Clear
11:35 AM 63.5 °F 45.9 °F 53% 30.21 in 10.0 mi SW 8.1 mph 16.1 mph N/A   Clear
11:54 AM 64.2 °F 45.5 °F 51% 30.21 in 10.0 mi SW 5.8 mph - N/A   Clear
12:14 PM 64.8 °F 45.7 °F 50% 30.21 in 10.0 mi North - - N/A   Clear
12:35 PM 64.9 °F 45.7 °F 50% 30.20 in 10.0 mi WSW 6.9 mph - N/A   Clear
12:54 PM 66.2 °F 45.5 °F 47% 30.19 in 10.0 mi SW 9.2 mph - N/A   Clear
1:14 PM 66.0 °F 45.3 °F 47% 30.19 in 10.0 mi North - - N/A   Clear
1:34 PM 67.1 °F 45.1 °F 45% 30.18 in 10.0 mi North - - N/A   Clear
1:54 PM 67.8 °F 45.7 °F 45% 30.17 in 10.0 mi North - - N/A   Clear
2:15 PM 68.5 °F 45.1 °F 43% 30.16 in 10.0 mi North - - N/A   Clear
2:34 PM 68.0 °F 45.0 °F 43% 30.16 in 10.0 mi North - - N/A   Clear
2:54 PM 68.9 °F 45.1 °F 42% 30.15 in 10.0 mi SW 8.1 mph - N/A   Clear
3:15 PM 69.6 °F 44.4 °F 40% 30.14 in 10.0 mi SW 5.8 mph - N/A   Clear
3:34 PM 69.8 °F 43.7 °F 39% 30.14 in 10.0 mi SW 6.9 mph - N/A   Clear
3:55 PM 70.3 °F 42.8 °F 37% 30.13 in 10.0 mi SSW 8.1 mph - N/A   Clear
4:15 PM 70.9 °F 41.5 °F 35% 30.12 in 10.0 mi WSW 8.1 mph - N/A   Clear
4:34 PM 70.7 °F 40.1 °F 33% 30.11 in 10.0 mi North - - N/A   Clear
4:55 PM 70.9 °F 38.7 °F 31% 30.10 in 10.0 mi West 10.4 mph - N/A   Clear
5:15 PM 71.6 °F 37.9 °F 29% 30.10 in 10.0 mi SW 6.9 mph - N/A   Clear
5:34 PM 71.1 °F 37.4 °F 29% 30.09 in 10.0 mi West 9.2 mph - N/A   Clear
5:55 PM 70.2 °F 38.3 °F 31% 30.09 in 10.0 mi West 5.8 mph - N/A   Clear
6:14 PM 68.9 °F 39.0 °F 34% 30.09 in 10.0 mi WNW 8.1 mph 16.1 mph N/A   Clear
6:35 PM 68.2 °F 38.1 °F 33% 30.08 in 10.0 mi WNW 5.8 mph - N/A   Clear
6:54 PM 67.3 °F 39.2 °F 36% 30.08 in 10.0 mi North - - N/A   Clear
7:15 PM 65.5 °F 41.0 °F 41% 30.08 in 10.0 mi North - - N/A   Clear
7:35 PM 64.9 °F 39.7 °F 40% 30.08 in 10.0 mi NNW 4.6 mph - N/A   Clear
7:54 PM 64.6 °F 40.3 °F 41% 30.08 in 10.0 mi NW 4.6 mph - N/A   Clear
8:15 PM 63.1 °F 40.3 °F 43% 30.07 in 10.0 mi Calm Calm - N/A   Clear
8:34 PM 59.5 °F 44.4 °F 57% 30.08 in 10.0 mi Calm Calm - N/A   Clear
8:55 PM 55.8 °F 46.9 °F 72% 30.08 in 10.0 mi Calm Calm - N/A   Clear
9:15 PM 53.1 °F 44.4 °F 72% 30.08 in 10.0 mi NW 4.6 mph - N/A   Clear
9:34 PM 50.9 °F 43.9 °F 77% 30.09 in 10.0 mi Calm Calm - N/A   Clear
9:55 PM 50.4 °F 45.0 °F 82% 30.09 in 10.0 mi Calm Calm - N/A   Clear
10:15 PM 48.7 °F 44.4 °F 85% 30.09 in 10.0 mi Calm Calm - N/A   Clear
10:34 PM 48.2 °F 42.8 °F 82% 30.09 in 10.0 mi NNE 4.6 mph - N/A   Clear
10:55 PM 47.1 °F 43.5 °F 87% 30.09 in 10.0 mi Calm Calm - N/A   Clear
11:15 PM 45.5 °F 41.7 °F 87% 30.09 in 10.0 mi Calm Calm - N/A   Clear
11:34 PM 46.4 °F 42.6 °F 87% 30.09 in 10.0 mi Calm Calm - N/A   Clear
11:54 PM 45.7 °F 43.0 °F 90% 30.09 in 10.0 mi Calm Calm - N/A   Clear